TimeMDT,TemperatureF,Dew PointF,Humidity,Sea Level PressureIn,VisibilityMPH,Wind Direction,Wind SpeedMPH,Gust SpeedMPH,PrecipitationIn,Events,Conditions,WindDirDegrees,DateUTC
12:53 AM,53.1,28.0,38,30.09,10.0,SW,6.9,-,N/A,,Clear,230,2013-04-27 06:53:00
1:53 AM,51.1,28.0,41,30.08,10.0,SW,8.1,-,N/A,,Clear,220,2013-04-27 07:53:00
2:53 AM,48.0,27.0,44,30.07,10.0,Calm,Calm,-,N/A,,Clear,0,2013-04-27 08:53:00
3:53 AM,42.1,28.0,58,30.07,10.0,SW,6.9,-,N/A,,Clear,230,2013-04-27 09:53:00
4:53 AM,48.0,28.0,46,30.03,10.0,South,9.2,-,N/A,,Clear,190,2013-04-27 10:53:00
5:53 AM,37.9,28.0,68,30.06,10.0,Calm,Calm,-,N/A,,Clear,0,2013-04-27 11:53:00
6:53 AM,42.1,30.9,65,30.06,10.0,SSW,3.5,-,N/A,,Clear,200,2013-04-27 12:53:00
7:53 AM,51.1,32.0,48,30.07,10.0,WSW,6.9,-,N/A,,Clear,250,2013-04-27 13:53:00
8:53 AM,57.9,32.0,37,30.06,10.0,WSW,10.4,-,N/A,,Clear,250,2013-04-27 14:53:00
9:53 AM,64.9,30.9,28,30.05,10.0,WSW,10.4,-,N/A,,Clear,250,2013-04-27 15:53:00
10:53 AM,73.0,28.9,20,30.02,10.0,NW,17.3,21.9,N/A,,Clear,320,2013-04-27 16:53:00
11:53 AM,75.0,24.1,15,29.99,10.0,NW,11.5,18.4,N/A,,Clear,320,2013-04-27 17:53:00
12:53 PM,75.9,25.0,15,29.97,10.0,WNW,11.5,16.1,N/A,,Clear,290,2013-04-27 18:53:00
1:53 PM,75.9,25.0,15,29.94,10.0,West,6.9,-,N/A,,Clear,260,2013-04-27 19:53:00
2:53 PM,77.0,24.1,14,29.93,10.0,WNW,10.4,17.3,N/A,,Clear,300,2013-04-27 20:53:00
3:53 PM,78.1,28.9,17,29.91,10.0,West,12.7,21.9,N/A,,Clear,280,2013-04-27 21:53:00
4:53 PM,77.0,27.0,16,29.88,10.0,West,12.7,19.6,N/A,,Clear,280,2013-04-27 22:53:00
5:53 PM,77.0,27.0,16,29.89,10.0,WNW,4.6,-,N/A,,Clear,300,2013-04-27 23:53:00
6:53 PM,73.9,28.0,18,29.88,10.0,Calm,Calm,-,N/A,,Clear,0,2013-04-28 00:53:00
7:53 PM,66.0,33.1,29,29.86,8.0,SSE,4.6,-,N/A,,Clear,160,2013-04-28 01:53:00
8:53 PM,57.0,36.0,45,29.87,10.0,ESE,3.5,-,N/A,,Clear,120,2013-04-28 02:53:00
9:53 PM,55.0,35.1,47,29.84,9.0,SSE,12.7,-,N/A,,Clear,150,2013-04-28 03:53:00
10:53 PM,51.1,35.1,54,29.83,10.0,WSW,4.6,-,N/A,,Clear,250,2013-04-28 04:53:00
11:53 PM,53.1,34.0,48,29.81,10.0,West,4.6,-,N/A,,Clear,260,2013-04-28 05:53:00